Location: Marcé
(47.5801°N, 0.3280°W)
Time: 09:26:49
(UTC+01:00)

Explorer 7 - Pass Details

Date: 07 December 2021
Orbit: 483 x 674 km, 50.3° (Epoch: 24 January)

Event Time Altitude Azimuth Distance (km) Brightness Sun altitude
Rises 06:24:28 0° 244° (WSW) 2,858 - -21.1°
Reaches altitude 10° 06:26:49 10° 243° (WSW) 1,924 - -20.8°
Exits shadow 06:29:57 45° 236° (SW) 787 7.2 -20.2°
Maximum altitude 06:31:12 79° 158° (SSE) 581 6.9 -20.0°
Drops below altitude 10° 06:35:20 10° 71° (ENE) 1,808 10.3 -19.4°
Sets 06:37:29 0° 70° (ENE) 2,671 11.3 -19.0°
